Skip Page Navigation
NASA JPL Caltech
NASA Logo - Jet Propulsion Laboratory + View the NASA Portal
+ Center for Near-Earth Object Studies
JPL Home Earth Solar System Stars & Galaxies Technology
JPL Solar System Dynamics
BODIES ORBITS EPHEMERIDES TOOLS PHYSICAL DATA DISCOVERY FAQ SITE MAP
JPL Small-Body Database Browser
Search: [ help ]  
266058 (2006 QX100)
Classification: Main-belt Asteroid          SPK-ID: 2266058
Ephemeris | Orbit Diagram | Orbital Elements | Mission Design | Physical Parameters | Discovery Circumstances ]

[ show orbit diagram ]
Orbital Elements at Epoch 2459000.5 (2020-May-31.0) TDB
Reference: JPL 10 (heliocentric ecliptic J2000)
 Element Value Uncertainty (1-sigma)   Units 
e .1564657748006533 6.1243e-08  
a 2.205872785872744 1.0953e-08 au
q 1.86072919131949 1.3978e-07 au
i 6.871469830589695 6.3733e-06 deg
node 308.6077112735624 4.2488e-05 deg
peri 69.57881138149683 4.8848e-05 deg
M 51.21833760812928 2.0825e-05 deg
tp 2458830.248048472317
(2019-Dec-12.74804847)
6.9007e-05 TDB
period 1196.655444362528
3.28
8.9129e-06
2.44e-08
d
yr
n .3008384758503115 2.2407e-09 deg/d
Q 2.551016380425998 1.2667e-08 au
  Orbit Determination Parameters
   # obs. used (total)      213  
   data-arc span      5826 days (15.95 yr)  
   first obs. used      2003-12-03  
   last obs. used      2019-11-15  
   planetary ephem.      DE431  
   SB-pert. ephem.      SB431-N16  
   condition code      0  
   norm. resid. RMS      .59325  
   source      ORB  
   producer      Otto Matic  
   solution date      2019-Dec-14 17:21:27  

Additional Information
 Earth MOID = .875021 au 
 Jupiter MOID = 2.9539 au 
 T_jup = 3.636 
[ show covariance matrix ]

Ephemeris | Orbit Diagram | Orbital Elements | Mission Design | Physical Parameters | Discovery Circumstances ]

Physical Parameter Table
Parameter Symbol Value Units Sigma Reference Notes
absolute magnitude H 17.5   n/a MPO494438  

266058 (2006 QX100)          Discovered 2006-Aug-25 by Lin, C.-S., Ye, Q.-z. at Lulin
Reference: 20110218/Numbers.arcLast Updated: 2011-02-22
Ephemeris | Orbit Diagram | Orbital Elements | Mission Design | Physical Parameters | Discovery Circumstances ]
ABOUT SSD CREDITS/AWARDS PRIVACY/COPYRIGHT GLOSSARY LINKS
FirstGov 2020-Aug-15 18:40 UT
(server date/time)  
NASA Home Page
Site Manager:   Ryan S. Park
Webmaster  Alan B. Chamberlin